Tracking 29747 objects as of 10-Oct-2024
HD Live streaming from Space Station
objects crossing your sky now

DELTA 1 DEB

Track DELTA 1 DEB now!
10-day predictions


NORAD ID: 26841
Int'l Code: 1975-052KV
Perigee: 924.3 km
Apogee: 1,712.6 km
Inclination: 99.9 °
Period: 111.8 minutes
Semi major axis: 7689 km
RCS: 0.0089 m2 (small)
Launch date: June 12, 1975
Source: United States (US)
Launch site: AIR FORCE WESTERN TEST RANGE (AFWTR)

Note: This is SATELLITE DEBRIS
Your satellite tracking list
Your tracking list is empty




NASA's NSSDC Master Catalog

Two Line Element Set (TLE):
1 26841U 75052KV  24283.30463258  .00004647  00000-0  10420-1 0  9999
2 26841  99.8954 309.5333 0512535 103.3549 321.8812 12.87538092491777
Source of the keplerian elements: AFSPC